[[{"header":{"parameterUnit":"m.s-1","parameterCategory":1,"la1":30.2991,"la2":30.254,"lo1":-89.0895,"lo2":-89.0444,"dy":0.0017,"dx":0.0017,"nx":28,"ny":28,"refTime":"2025-03-23T21:00:00:Z","depth":0,"parameterNumber":2,"parameterNumberName":"U-component_of_WINDS"},"data":[0,0,0,0,0,0,0,0,0,0,0,0,0,0,0,0,0,0,0,0,0,0,0,0,0,0,0,0,0,0,0,0,0,0,0,0,0,0,0,0,0,0,0,0,0,0,0,0,0,0,0,0,0,0,0,0,0,0,0.8897,0.8898,0,0.8943,0.8943,0.8944,0.8962,0.8962,0.8962,0.8962,0.901,0.9012,0.9013,0,0,0,0,0,0,0,0,0,0,0,0,0,0.8826,0.8827,0.8897,0.8898,0.8898,0.8943,0.8943,0.8944,0.8962,0.8962,0.8962,0.8962,0.901,0.9011,0.9013,0,0,0,0,0,0,0,0,0,0,0,0,0,0.8863,0.8828,0.8897,0.8913,0.8915,0.8943,0.8943,0.8944,0.8962,0.8962,0.8962,0.8962,0.9009,0.9011,0.9013,0.9029,0,0,0.902,0.9021,0,0,0,0,0,0,0,0,0.8861,0.8866,0.891,0.8912,0.8914,0.8947,0.8936,0.8973,0.8963,0.8944,0.8962,0.8962,0.8989,0.8993,0.9002,0.9032,0.9034,0.902,0.9021,0.9022,0.9023,0,0,0,0,0,0,0,0.8858,0.8864,0.8915,0.8911,0.8913,0.8918,0.8923,0.8943,0.8967,0.8946,0.8947,0.8952,0.899,0.9,0.9003,0.9034,0.902,0.9022,0.9023,0.9024,0.9078,0.9078,0,0,0,0,0,0,0.8853,0.8861,0.8914,0.8917,0.8886,0.8919,0.8925,0.8936,0.8967,0.8972,0.8953,0.8953,0.8997,0.9001,0.9005,0.9025,0.9022,0.9024,0.9025,0.9078,0.9078,0.9078,0,0,0,0,0,0,0.8851,0.8858,0.8912,0.8889,0.8897,0.892,0.8933,0.8937,0.8947,0.8972,0.8977,0.8958,0.8997,0.9002,0.9023,0.9027,0.9025,0.9027,0.9078,0.9078,0.9078,0.9066,0,0,0,0,0,0,0.8849,0.8857,0.8863,0.8889,0.8898,0.8929,0.8934,0.8938,0.895,0.8952,0.8978,0.8983,0.8997,0.902,0.9025,0.903,0.9028,0.9077,0.9078,0.9078,0.9066,0.9066,0.9066,0,0,0,0,0,0.8847,0.8859,0.8864,0.887,0.8906,0.8929,0.8934,0.895,0.8951,0.8957,0.8973,0.8982,0.9026,0.9022,0.9028,0.9034,0.9077,0.9078,0.9078,0.9066,0.9066,0.9066,0,0,0,0,0,0,0.8833,0.8863,0.8868,0.8889,0.8906,0.8932,0.8941,0.8949,0.8967,0.8968,0.8987,0.8993,0.9012,0.9025,0.902,0.905,0.9052,0.9054,0.9041,0.9041,0.9041,0.9037,0.903,0,0,0,0,0,0.8833,0.8849,0.8873,0.8889,0.8897,0.8918,0.8928,0.8939,0.8958,0.8965,0.8983,0.9001,0.9019,0.9031,0.9049,0.9068,0.9074,0.9075,0.9074,0.9074,0.9075,0.9086,0.9086,0.908,0.908,0.908,0,0,0.8832,0.885,0.8859,0.8887,0.8902,0.8918,0.8924,0.8941,0.8953,0.8968,0.8989,0.9002,0.9023,0.9043,0.9053,0.9055,0.9078,0.9075,0.9074,0.9076,0.9086,0.9087,0.9087,0.908,0.908,0.908,0,0,0.8838,0.8854,0.8868,0.8882,0.8904,0.8917,0.892,0.8945,0.8954,0.8974,0.8986,0.9,0.9031,0.9045,0.9057,0.9067,0.9075,0.9072,0.9071,0.908,0.9081,0.9081,0.9084,0.9085,0.9073,0.9073,0.9073,0,0.8835,0.8859,0.8875,0.8891,0.8902,0.8916,0.893,0.8943,0.897,0.8978,0.8979,0.9017,0.9032,0.9055,0.9057,0.9066,0.907,0.9069,0.9079,0.908,0.9081,0.9084,0.9085,0.9072,0.9073,0.9073,0.9073,0,0.8853,0.887,0.8879,0.8903,0.8916,0.8931,0.8949,0.896,0.8968,0.8981,0.9001,0.902,0.9041,0.9047,0.9057,0.9071,0.9071,0.9076,0.9078,0.9081,0.9084,0.9085,0.9072,0.9072,0.9072,0.9072,0,0,0.8855,0.8886,0.8889,0.89,0.8924,0.8937,0.8952,0.8972,0.8981,0.8998,0.9011,0.9036,0.904,0.9052,0.9063,0.9071,0.9077,0.9075,0.9076,0.9074,0.9093,0.909,0.9091,0.9082,0.9083,0.9083,0.9091,0,0.8864,0.8892,0.8906,0.8928,0.8943,0.8954,0.8968,0.8984,0.8995,0.901,0.9023,0.904,0.9044,0.9051,0.906,0.9075,0.9081,0.9074,0.9095,0.9095,0.9089,0.9093,0.909,0.9097,0.9093,0.9093,0.9093,0,0.888,0.8896,0.8919,0.894,0.8947,0.8959,0.8978,0.8991,0.9009,0.9017,0.903,0.904,0.9056,0.9057,0.9079,0.9074,0.9082,0.9091,0.9091,0.9094,0.9095,0.9096,0.91,0.9101,0.9095,0.9095,0.9095,0,0.8878,0.8906,0.8923,0.8932,0.8957,0.8965,0.8975,0.8993,0.9004,0.902,0.9027,0.9045,0.9055,0.9069,0.9083,0.9082,0.9103,0.9105,0.911,0.911,0.9115,0.9114,0.912,0.912,0.912,0.912,0.912,0,0.8888,0.8902,0.8922,0.8933,0.8948,0.8963,0.8978,0.8989,0.9005,0.9018,0.9029,0.9041,0.9059,0.9072,0.9083,0.9099,0.9104,0.9111,0.9114,0.911,0.9109,0.9117,0.9116,0.912,0.912,0.912,0.912,0,0.8889,0.8903,0.8923,0.8944,0.895,0.896,0.8979,0.8989,0.9001,0.9017,0.9021,0.9039,0.9056,0.9071,0.9094,0.9101,0.9117,0.9121,0.9111,0.9113,0.9117,0.9116,0.9128,0.913,0.9128,0.9128,0.9128,0,0.8895,0.8905,0.8927,0.8936,0.8947,0.8961,0.8972,0.8986,0.8997,0.9017,0.9025,0.9042,0.9057,0.9083,0.9098,0.9115,0.9119,0.9122,0.9122,0.9117,0.9119,0.9118,0.9119,0.9122,0.9122,0.9122,0.9122,0,0.8903,0.8909,0.8924,0.894,0.8953,0.8967,0.8981,0.8988,0.9005,0.9016,0.9033,0.9044,0.9066,0.9083,0.9101,0.9112,0.9119,0.9121,0.9123,0.912,0.9114,0.9117,0.9111,0.9121,0.9121,0.9121,0.9121,0.9121,0.8906,0.8916,0.8932,0.8948,0.896,0.8973,0.8983,0.8996,0.901,0.9029,0.9036,0.9053,0.9069,0.9094,0.9104,0.9118,0.9119,0.9122,0.9123,0.9124,0.9123,0.9111,0.9121,0.9121,0.9121,0.9121,0.9121,0,0.8915,0.8926,0.894,0.8959,0.8971,0.8976,0.8992,0.9002,0.9016,0.9031,0.9044,0.9063,0.9079,0.9094,0.9111,0.9118,0.9122,0.9122,0.9122,0.9124,0.912,0.9117,0.9118,0.9118,0.9118,0.9118,0.9118,0.9118,0.8921,0.8937,0.8945,0.8967,0.8977,0.8994,0.9002,0.9014,0.9025,0.9045,0.9058,0.9068,0.9082,0.9099,0.9114,0.9118,0.9123,0.9122,0.9127,0.9124,0.9124,0.9124,0.9121,0.9123,0.9123,0.913,0.913,0.913]},{"header":{"parameterUnit":"m.s-1","parameterCategory":1,"la1":30.2991,"la2":30.254,"lo1":-89.0895,"lo2":-89.0444,"dy":0.0017,"dx":0.0017,"nx":28,"ny":28,"refTime":"2025-03-23T21:00:00:Z","depth":0,"parameterNumber":3,"parameterNumberName":"V-component_of_WINDS"},"data":[0,0,0,0,0,0,0,0,0,0,0,0,0,0,0,0,0,0,0,0,0,0,0,0,0,0,0,0,0,0,0,0,0,0,0,0,0,0,0,0,0,0,0,0,0,0,0,0,0,0,0,0,0,0,0,0,0,0,3.8013,3.8013,0,3.8039,3.804,3.804,3.8065,3.8065,3.8066,3.8066,3.8091,3.8091,3.8091,0,0,0,0,0,0,0,0,0,0,0,0,0,3.798,3.7981,3.8013,3.8013,3.8013,3.8039,3.804,3.804,3.8065,3.8065,3.8066,3.8066,3.809,3.8091,3.8091,0,0,0,0,0,0,0,0,0,0,0,0,0,3.7999,3.7981,3.8013,3.8029,3.8031,3.8039,3.804,3.804,3.8065,3.8065,3.8066,3.8066,3.809,3.8091,3.8091,3.8085,0,0,3.8093,3.8093,0,0,0,0,0,0,0,0,3.7998,3.8001,3.8026,3.8028,3.803,3.805,3.8037,3.8055,3.8065,3.8052,3.8066,3.8067,3.8076,3.8078,3.8082,3.8086,3.8087,3.8093,3.8093,3.8094,3.8094,0,0,0,0,0,0,0,3.7997,3.8,3.8023,3.8027,3.8029,3.8034,3.8037,3.8041,3.8061,3.8053,3.8055,3.8058,3.8077,3.8081,3.8083,3.8088,3.8093,3.8094,3.8094,3.8094,3.8087,3.8087,0,0,0,0,0,0,3.7994,3.7998,3.8022,3.8024,3.8015,3.8034,3.8038,3.8043,3.8061,3.8064,3.8058,3.8059,3.808,3.8082,3.8084,3.8077,3.8094,3.8094,3.8094,3.8088,3.8087,3.8087,0,0,0,0,0,0,3.7993,3.7995,3.8021,3.8012,3.8015,3.8034,3.8039,3.8043,3.8047,3.8064,3.8068,3.8058,3.8081,3.8083,3.8085,3.8078,3.8094,3.8095,3.8088,3.8088,3.8087,3.8064,0,0,0,0,0,0,3.7992,3.7995,3.7993,3.8012,3.8016,3.8023,3.8039,3.8043,3.8048,3.805,3.8066,3.8069,3.8081,3.8084,3.8085,3.8079,3.8095,3.8089,3.8088,3.8087,3.8065,3.8063,3.806,0,0,0,0,0,3.799,3.7985,3.7993,3.7996,3.8015,3.8022,3.8025,3.804,3.8048,3.8046,3.8057,3.8068,3.8079,3.8084,3.8085,3.808,3.809,3.8088,3.8087,3.8067,3.8063,3.806,0,0,0,0,0,0,3.7965,3.7988,3.7997,3.7998,3.8008,3.8026,3.8025,3.8036,3.8043,3.8045,3.8062,3.8065,3.8065,3.8073,3.8078,3.8074,3.8086,3.8085,3.8069,3.8066,3.8064,3.8061,3.8096,0,0,0,0,0,3.796,3.7965,3.7985,3.7983,3.7988,3.8005,3.8009,3.802,3.8031,3.8035,3.8046,3.8056,3.8061,3.8064,3.807,3.8067,3.807,3.8064,3.8061,3.8059,3.8058,3.8056,3.8053,3.8083,3.8083,3.8083,0,0,3.7949,3.7962,3.7964,3.7979,3.7988,3.7992,3.8009,3.8013,3.8015,3.8035,3.8038,3.8046,3.8058,3.8057,3.8057,3.8063,3.805,3.8057,3.8055,3.8056,3.8054,3.8051,3.8049,3.8082,3.8082,3.8083,0,0,3.793,3.7941,3.7941,3.795,3.7964,3.7976,3.7975,3.7992,3.7999,3.8002,3.8017,3.802,3.8029,3.8037,3.8041,3.8026,3.8036,3.8027,3.8013,3.8011,3.8009,3.8007,3.8,3.7998,3.8026,3.8026,3.8026,0,3.7914,3.7922,3.7939,3.7942,3.7948,3.7967,3.7967,3.7974,3.7989,3.7992,3.7999,3.8011,3.802,3.802,3.8016,3.802,3.802,3.8025,3.8008,3.8006,3.8004,3.7998,3.7996,3.8025,3.8025,3.8025,3.8025,0,3.7901,3.7906,3.7904,3.7919,3.7925,3.7926,3.7943,3.7946,3.7956,3.7967,3.7969,3.798,3.7989,3.799,3.8,3.7992,3.7995,3.8005,3.8016,3.8,3.7995,3.7993,3.8023,3.8023,3.8024,3.8024,0,0,3.7867,3.7892,3.7891,3.7898,3.7914,3.7918,3.792,3.7929,3.7931,3.794,3.7941,3.7949,3.7958,3.7963,3.7974,3.7972,3.7958,3.7982,3.7982,3.7977,3.7949,3.7942,3.7939,3.7966,3.7965,3.7965,3.7948,0,3.7851,3.7856,3.7872,3.7872,3.7876,3.7895,3.7896,3.7906,3.7916,3.792,3.793,3.7935,3.7947,3.795,3.7949,3.796,3.7953,3.7962,3.7966,3.7966,3.7962,3.7936,3.7928,3.7912,3.7946,3.7946,3.7946,0,3.7833,3.7842,3.7843,3.7859,3.7862,3.7863,3.7872,3.7876,3.7887,3.7895,3.7901,3.7913,3.7915,3.7926,3.7928,3.7934,3.7936,3.7942,3.7942,3.7942,3.7954,3.7935,3.7907,3.7904,3.7943,3.7943,3.7943,0,3.7807,3.782,3.7822,3.7827,3.7846,3.7846,3.7854,3.7866,3.787,3.7878,3.7881,3.7889,3.7893,3.7898,3.7911,3.7919,3.7912,3.7924,3.7917,3.7916,3.7914,3.7914,3.7885,3.7917,3.7917,3.7917,3.7917,0,3.7787,3.7787,3.781,3.7811,3.7811,3.7829,3.7828,3.7837,3.7847,3.785,3.7866,3.7868,3.7886,3.7889,3.79,3.7899,3.7901,3.7906,3.7909,3.7905,3.7904,3.7906,3.7907,3.7916,3.7916,3.7916,3.7916,0,3.7759,3.7774,3.7778,3.7796,3.78,3.7799,3.7814,3.7815,3.7826,3.7829,3.7831,3.7848,3.7853,3.7867,3.7875,3.7882,3.7878,3.7884,3.7875,3.7877,3.7868,3.7868,3.7839,3.7836,3.787,3.787,3.7869,0,3.7744,3.7745,3.7763,3.7766,3.7774,3.7779,3.7784,3.7801,3.7805,3.7818,3.7817,3.7823,3.7829,3.7836,3.7848,3.7855,3.786,3.7849,3.7861,3.7856,3.7859,3.7859,3.7858,3.7847,3.7846,3.7846,3.7846,0,3.7718,3.7726,3.7732,3.7742,3.7747,3.7755,3.7764,3.7765,3.7784,3.7788,3.7794,3.7798,3.7807,3.7813,3.7821,3.7828,3.784,3.7842,3.784,3.7836,3.783,3.7832,3.7867,3.7842,3.7843,3.7843,3.7843,3.7843,3.7695,3.7696,3.7709,3.7716,3.7725,3.7733,3.7735,3.7746,3.7751,3.7761,3.777,3.7775,3.7785,3.7798,3.7804,3.7807,3.7813,3.7811,3.781,3.7809,3.7807,3.783,3.7808,3.7808,3.7809,3.7809,3.7809,0,3.7669,3.7678,3.7684,3.7697,3.7702,3.7713,3.7723,3.7726,3.7731,3.774,3.7746,3.7752,3.7758,3.777,3.7777,3.7777,3.7782,3.7778,3.7778,3.7779,3.7801,3.7802,3.7774,3.7774,3.7774,3.7774,3.7774,3.7774,3.7656,3.7657,3.7667,3.7673,3.7682,3.7687,3.7692,3.7699,3.7707,3.7713,3.7718,3.7727,3.7737,3.7745,3.775,3.7754,3.7755,3.7749,3.7754,3.7774,3.7778,3.7781,3.7781,3.7749,3.7749,3.7732,3.7731,3.7731]}]]